Weather in Vyucheysky

Russia / Nenets Autonomous Okrug     67°34′10″N   49°03′19″E
temp.,
°C
wind,
m/s
gust,
m/s
humid.,
%
clouds,
%
prec.,
mm/h
press.,
hPa
HPBL,
m
19 january, wed
wed1900:00−12wsw479496 0.2 997101
03:00−13wsw6109340 0.2 99792
06:00−12sw61099100 0.0 996120
09:00−12ssw71389100 0.0 995152
12:00−10ssw101883100 0.0 993354
15:00−8ssw121988100 0.1 990532
18:00−7ssw121989100 0.6 987496
21:00−6sw121888100 0.6 986415
20 january, thu
thu2000:00−6ssw111788100 0.0 986417
03:00−6ssw111788100 0.1 986404
06:00−6ssw101688100 0.1 985411
09:00−6ssw101688100 0.1 985420
12:00−5ssw101789100 0.4 985439
15:00−5ssw11178992 0.5 986401
18:00−5ssw111889100 0.1 986396
21:00−3sw111892100 0.3 988440
21 january, fri
fri2100:00−3sw10169297 0.3 990415
03:00−2sw91492100 0.3 993353
06:00−2sw81492100 0.1 995322
09:00−2ssw81491100 0.2 997335
12:00−2sw91490100 0.1 999369
15:00−4sw91590100 0.1 1002334
18:00−4sw101590100 0.0 1004317
21:00−5sw91490100 0.1 1007303
22 january, sat
sat2200:00−6sw91391100 0.0 1010243
03:00−7wsw8129294 0.0 1012193
06:00−8sw7119395 0.0 1015136
09:00−9wsw699383 0.1 101797
12:00−10wsw589346 0.0 101977
15:00−11wsw469420 0.0 102151
18:00−12sw439564 0.0 102230
21:00−12sw459573 0.0 102351
23 january, sun
sun2300:00−12sw599551 0.0 102490
03:00−13sw6109320 0.0 1024102
06:00−13sw6119313 0.0 1024120
09:00−14sw8159212 0.0 1024181
12:00−14sw101886100 0.0 1024229
15:00−14sw11198571 0.0 1023236
18:00−13sw12218492 0.0 1022272
21:00−12sw132286100 0.0 1021328